User: anonymous   Login
Location: Unspecified
(38.0989°N, 0.6729°W)
Time: 15:03:28
(UTC+02:00)
Language:

Mayak - Orbit

View from above orbital plane
View from above orbital plane
View from above satellite
View from above satellite

Ground track
Ground track

The orbit data is extracted from the following two-line orbital elements,

1 42830U 17042F   18145.15426439  .00000684  00000-0  74039-4 0  9999
2 42830  97.6001  48.5257 0012789 275.3954  84.5806 14.91272336 46903
Epoch (UTC): 25 May 2018 03:42:08
Eccentricity: 0.0012789
inclination: 97.6001°
perigee height: 585 km
apogee height: 603 km
right ascension of ascending node: 48.5257°
argument of perigee: 275.3954°
revolutions per day: 14.91272336
mean anomaly at epoch: 84.5806°
orbit number at epoch: 4690

The dashed part of the orbit path shows where the satellite is in the earth's shadow,  

DLR